sat.trackr.live / text

‹ back to catalog

STARLINK-4647

NORAD 53608 · 2022-104W

PAYLOAD ACTIVE UNKNOWN

§ Identity

Operator
Country
US
Launch date
2022-08-28
Launch site
AFETR
Launch vehicle
Mass (kg)
RCS (m²)

Purposes: comms

External: N2YO · Heavens-Above · Gunter

§ Orbital elements

Epoch: 2026-05-25T00:10:19.642656Z

Period
95.44 min
Inclination
53.2156°
Eccentricity
0.0001206
Mean motion
15.08835140 rev/d
Perigee alt
538.9 km
Apogee alt
540.6 km
Semi-major
6,917.9 km
B*
2.3166e-5
RAAN
251.7090°
Arg perigee
87.6063°
Mean anomaly
272.5067°
Rev number
20,715

§ Raw data

STARLINK-46471 53608U 22104W   26145.00717179  .00000081  00000+0  23166-4 0  99912 53608  53.2156 251.7090 0001206  87.6063 272.5067 15.08835140207158

JSON: /api/v1/satellites/53608 · /tle

For live sub-satellite position, see the globe view (requires WebGL).

§ Visibility from observer

Set your observer location to see the next 7 days of passes ≥ 10°. The values pass through the URL so the page stays shareable.

No JS? Fill the form by hand. The geolocation button needs JavaScript.